Location: Quaker Farms
(41.4276°N, 73.1557°W)
Time: 20:41:08
(UTC+00:00)

S-56A Canister/Altair - Pass Details

Date: 22 June 2021
Orbit: 631 x 2501 km, 38.9° (Epoch: 30 July)

Event Time Altitude Azimuth Distance (km) Brightness Sun altitude
Rises 15:27:41 0° 264° (W) 3,530 10.7 64.4°
Reaches altitude 10° 15:32:00 10° 234° (SW) 2,935 10.6 65.1°
Maximum altitude 15:34:30 12° 213° (SSW) 2,994 10.8 65.4°
Drops below altitude 10° 15:37:19 10° 193° (SSW) 3,386 11.1 65.8°
Sets 15:43:29 0° 167° (SSE) 4,881 11.9 66.6°
